SCP
-0 0 0 0 -0 -0 -0 -0 -0 -0 -0 -0 -0 -0 0 0 0 0 0 0 0 0 0 0 0 0 0 0 0 0 0 0 0 0 0 0 0 0 0 0 -0 -0 0
-0 -0 0 0 -0 -0 -0 -0 -0 -0 -0 -0 -0 0 0 0 0 0 0 0 0 0 0 0 0 0 0 0 0 0 0 0 0 0 0 0 0 0 0 0 0 0 0
-0 -0 0 0 -0 -0 -0 -0 -0 -0 0 0 0 0 0 0 0 0 0 0 0 0 0 0 0 0 0 0 0 0 -0 -0 -0 -0 0 0 0 0 0 0 0 0 0
-0 -0 -0 -0 -0 -0 -0 -0 -0 0 0 0 0 0 0 0 0 0 0 0 0 0 0 0 0 0 0 0 0 0 0 -0 0 0 0 0 0 0 0 0 0 0 0
0 -0 -0 -0 -0 -0 -0 0 0 0 0 0 0 0 0 0 0 0 0 0 0 0 0 0 0 0 0 0 0 0 0 0 0 0 0 0 0 0 0 0 0 0 0
-0 0 -0 -0 -0 0 0 0 0 0 0 0 0 0 0 0 0 0 0 0 0 0 0 0 0 0 0 0 0 0 0 0 0 0 0 0 0 0 0 0 0 0 0
-0 -0 -0 -0 0 0 0 0 0 0 0 0 0 0 0 0 0 0 0 0 0 0 0 0 0 1 0 0 0 1 1 0 0 0 0 0 0 0 0 0 0 1 1
0 -0 -0 0 0 0 0 0 0 0 0 0 0 0 0 0 0 0 0 0 0 0 0 0 1 1 0 0 1 1 1 0 0 0 0 0 0 0 0 0 0 1 1
-0 0 -0 -0 0 0 0 0 0 0 0 0 0 0 0 0 0 0 0 0 0 0 0 0 0 0 0 0 0 1 1 0 0 1 0 0 0 1 0 1 1 0 1
-0 -0 -0 0 0 0 -0 -0 -0 -0 0 0 0 0 0 0 0 0 0 0 0 0 0 0 0 0 0 0 0 0 0 0 0 0 0 0 1 1 1 1 1 1 1
-0 -0 0 0 -0 -0 -0 -0 -0 -0 -0 -0 0 0 0 0 0 0 0 0 0 0 0 0 0 0 0 0 0 0 0 0 0 0 0 0 0 0 0 1 1 1 1
0 -0 -0 -0 -0 -0 -0 -0 -0 -0 -0 -0 -0 0 0 0 0 0 0 0 0 0 0 0 0 0 0 0 0 0 0 0 0 0 0 0 0 0 0 0 0 1 1
0 0 -0 -0 0 -0 0 0 -0 -0 -0 0 0 0 0 0 0 0 0 0 0 0 0 0 0 0 0 0 0 0 0 0 0 0 0 0 0 0 0 0 0 0 0
0 0 0 -0 0 0 0 0 0 0 0 0 0 0 0 0 0 0 0 0 0 0 0 0 0 0 0 0 0 0 0 0 0 0 0 0 0 0 0 0 0 0 0
0 0 0 -0 0 0 0 0 0 0 0 0 0 0 0 0 0 0 0 0 0 0 0 0 0 0 0 0 0 0 0 0 0 0 0 0 0 0 0 0 0 0 0
0 0 0 0 0 0 0 0 0 0 0 0 0 0 0 0 0 0 0 0 0 0 0 0 0 0 0 0 0 0 0 0 0 0 0 0 0 0 0 0 0 0 0
0 0 0 0 0 0 0 0 0 0 0 0 0 0 0 0 0 0 0 0 0 0 0 0 0 0 0 0 0 0 0 0 0 0 0 0 0 0 0 0 0 0 0
0 0 0 0 0 0 0 0 0 0 0 0 0 0 0 0 0 0 0 0 0 0 0 0 0 0 0 0 0 0 0 0 0 0 0 0 0 0 0 0 0 0 0
0 0 0 0 0 0 0 0 0 0 0 0 0 0 0 0 0 0 0 0 0 0 0 0 0 0 0 0 0 0 0 0 0 0 0 0 0 0 0 0 0 0 0
0 0 0 0 0 0 0 0 0 0 0 0 0 0 0 0 0 0 0 0 0 0 0 0 0 0 0 0 0 0 0 0 0 0 0 0 0 0 0 0 0 0 0
0 0 0 0 0 0 0 0 0 0 0 0 0 0 0 0 0 0 0 0 0 0 0 0 0 0 0 0 0 0 0 0 0 0 0 0 0 0 0 0 0 0 0
0 0 0 0 0 0 0 0 0 0 0 0 0 0 0 0 0 0 0 0 0 0 0 0 0 0 0 0 0 0 0 0 0 0 0 0 0 0 0 0 0 0 0
0 0 0 0 0 0 0 0 0 0 0 0 0 0 0 0 0 0 0 0 0 0 0 0 0 0 0 0 0 0 0 0 0 -0 0 0 0 0 0 0 0 0 0
0 0 0 0 0 0 0 0 0 0 0 0 0 0 0 0 0 0 0 0 0 0 0 0 0 0 0 0 0 0 0 0 0 0 0 0 0 0 0 0 0 0 0
0 0 0 0 0 0 0 0 0 0 0 0 0 0 0 0 0 0 0 0 0 0 0 0 0 0 0 0 0 0 0 0 0 0 0 0 0 0 0 0 0 0 0
0 0 0 0 0 0 0 0 0 0 0 0 0 0 0 0 0 0 0 0 0 0 0 0 0 0 0 0 0 0 0 0 0 0 0 0 0 0 0 0 0 0 0
Wind_Speed_500mb
27 26 26 25 23 22 23 25 26 26 27 26 26 25 24 21 19 16 13 11 10 9 8 7 7 7 8 8 8 8 8 8 8 8 7 5 8 11 13 15 16 17 16
29 28 26 25 24 22 23 23 23 23 23 22 22 21 20 18 16 13 10 7 4 5 7 8 9 10 11 12 12 12 11 11 11 9 7 5 6 5 5 7 11 12 13
29 29 26 23 23 22 21 21 22 22 21 20 18 17 16 14 12 8 5 3 2 5 8 10 11 11 11 12 13 14 15 16 15 14 14 13 14 15 13 11 10 10 9
27 25 23 21 18 19 19 18 18 18 16 16 15 13 11 8 5 1 2 5 8 11 13 14 15 15 15 16 18 19 19 18 18 18 19 21 22 22 21 19 18 20 17
27 25 23 22 20 20 20 18 18 16 15 13 11 10 9 6 4 3 3 5 7 10 13 15 16 18 21 22 22 23 24 24 25 24 23 24 26 27 29 27 26 27 28
24 23 21 19 18 17 17 16 14 13 12 10 10 9 8 6 4 1 3 7 12 14 14 14 17 19 19 20 22 25 28 29 30 29 29 28 29 30 30 36 35 32 33
23 22 20 18 17 15 15 14 13 12 10 8 6 5 3 1 1 3 7 8 10 11 12 14 16 18 22 24 25 26 29 31 33 34 34 35 35 34 38 39 42 41 38
20 24 22 20 17 15 13 11 9 7 5 2 1 1 2 4 4 2 5 9 11 13 16 17 19 25 30 31 31 30 32 35 39 41 41 40 39 38 39 44 46 46 46
24 24 24 21 19 16 14 13 11 9 6 3 3 4 5 6 6 8 14 16 20 23 24 26 27 30 33 32 32 34 36 38 41 42 41 40 35 35 36 38 43 50 50
29 27 25 23 22 20 18 15 13 13 11 8 7 5 6 9 10 12 16 18 21 24 26 26 28 30 33 35 38 41 45 50 52 52 49 47 44 41 39 35 33 39 53
31 25 26 29 29 28 23 20 19 19 19 20 20 19 19 18 17 18 19 22 24 26 27 27 29 34 36 37 38 43 49 52 53 57 61 60 60 54 50 44 40 38 42
36 34 32 27 26 22 20 18 16 17 16 17 15 15 16 15 13 16 19 22 26 29 33 37 41 45 51 56 59 58 62 64 56 57 58 58 61 59 58 55 51 45 42
38 38 33 26 21 18 14 13 11 10 10 11 13 14 15 16 16 19 24 30 35 40 41 43 45 49 54 60 64 69 73 75 74 69 57 55 58 61 64 64 62 58 54
42 38 35 29 20 15 12 8 7 3 4 7 9 12 15 20 24 29 35 41 44 46 49 51 52 55 58 64 71 76 79 80 83 82 68 66 68 62 62 70 72 71 68
45 37 36 33 25 17 17 15 12 6 4 4 8 13 20 25 31 36 39 41 42 44 48 53 58 62 64 71 77 80 85 86 86 86 72 77 83 79 81 75 76 81 82
50 39 41 40 30 23 21 20 18 12 10 13 17 20 26 35 40 43 47 48 50 52 56 60 64 69 71 75 80 82 87 92 94 84 85 92 97 95 93 79 78 87 86
52 44 45 44 33 27 25 24 22 17 18 23 27 28 33 41 45 49 51 52 54 57 61 65 68 71 77 81 87 91 96 96 93 96 96 92 79 70 72 70 64 63 74
53 52 51 46 37 34 28 24 20 18 23 28 32 36 42 44 43 40 44 51 57 61 67 73 78 85 90 89 86 87 87 84 84 83 81 77 72 74 68 56 51 61 61
65 58 60 54 44 41 35 30 28 29 30 34 37 39 42 43 47 52 60 65 69 74 79 83 85 83 86 88 91 92 89 85 80 77 73 68 65 63 61 61 56 55 55
69 65 59 53 43 38 33 32 31 32 34 37 38 40 45 50 56 61 65 71 77 81 83 84 86 85 84 84 86 89 87 80 76 62 44 40 44 45 48 61 66 61 55
79 72 58 48 42 39 37 37 37 37 39 42 40 43 50 53 59 65 71 75 80 84 86 83 83 82 81 77 81 82 81 53 43 49 42 23 37 50 55 59 60 62 67
81 68 60 52 48 45 44 42 41 39 40 37 40 47 51 57 63 71 77 79 77 74 71 70 67 69 68 62 58 59 35 53 8 11 22 44 50 38 50 51 49 49 52
72 66 60 55 52 49 44 39 34 34 34 36 42 49 57 64 71 73 71 68 66 63 60 56 55 56 63 58 44 36 23 15 53 30 51 50 55 62 40 37 41 48 46
64 62 59 55 50 42 28 24 28 27 32 40 47 56 64 69 67 62 58 56 56 54 55 54 51 53 54 58 53 50 48 55 45 39 33 66 57 40 52 59 42 42 36
64 61 54 48 39 25 19 21 30 34 40 48 55 61 61 56 54 53 51 51 52 52 51 50 50 50 51 54 54 55 57 57 55 59 58 61 67 64 57 50 53 40 38
60 54 42 32 26 13 15 30 33 39 48 54 56 51 50 51 50 47 49 50 52 51 51 51 51 52 52 51 52 51 54 57 55 52 51 61 76 73 61 60 50 37 33
Wind_Direction_500mb
152 140 137 144 150 149 142 139 135 135 135 133 133 135 140 145 149 152 146 131 115 97 84 71 55 44 37 32 28 22 20 19 21 27 37 53 51 49 45 47 52 48 39
150 144 145 151 158 159 155 149 146 141 139 139 141 146 151 157 163 165 165 156 120 62 37 27 16 7 2 359 356 351 345 342 340 338 331 304 279 302 342 8 13 26 26
154 147 147 152 159 161 157 153 151 147 146 146 150 153 158 163 166 169 168 149 46 19 16 12 7 2 355 350 346 344 340 334 328 320 312 298 288 283 287 292 303 319 339
151 145 144 143 147 149 147 147 144 142 141 143 147 152 155 157 158 152 14 7 359 355 358 358 356 350 344 342 343 342 337 330 322 314 308 302 294 288 273 280 276 275 282
152 147 148 146 149 148 146 146 143 139 136 134 131 125 118 117 106 64 22 351 339 341 348 349 346 338 339 340 334 326 319 316 314 312 310 304 295 291 277 280 285 271 262
148 150 153 151 149 144 139 135 131 126 124 121 114 113 125 139 108 65 294 331 339 338 340 343 344 342 334 324 318 316 313 310 303 299 295 289 286 285 271 270 281 275 259
147 149 153 154 153 148 144 142 141 140 140 137 135 151 154 124 274 314 349 350 345 347 344 341 333 328 324 320 312 304 303 304 302 296 290 288 284 280 278 274 270 270 269
149 145 147 150 151 150 149 140 132 125 117 112 83 327 342 320 308 318 339 345 338 331 333 328 318 319 322 320 317 313 311 310 306 304 300 294 288 283 278 275 275 271 266
137 130 132 133 131 126 117 106 101 95 89 73 15 1 358 343 331 316 335 333 329 325 325 326 322 324 325 324 320 317 314 312 309 306 303 300 304 299 289 277 271 275 272
130 124 131 128 122 121 114 110 102 85 73 57 35 9 324 315 315 314 327 351 356 352 352 347 344 344 333 320 316 313 308 304 300 299 294 292 295 300 302 288 280 274 270
144 137 131 122 115 114 108 108 102 92 84 76 67 57 49 43 41 43 37 23 11 3 356 349 342 336 337 335 322 311 306 311 301 291 290 287 287 289 291 295 288 278 273
160 145 142 137 126 120 111 109 103 91 82 73 59 46 43 45 31 10 357 350 349 344 342 339 335 331 329 329 327 321 321 319 309 304 292 287 282 281 280 282 285 284 281
170 161 157 153 141 130 121 119 118 103 87 60 42 32 26 16 2 344 336 334 335 334 331 329 322 320 318 318 316 314 313 313 315 311 295 290 287 278 273 275 276 277 274
183 174 172 162 162 159 160 157 160 128 65 28 12 1 345 339 334 327 327 324 323 323 320 318 314 312 308 304 305 305 304 304 306 308 299 294 299 290 280 271 270 270 268
190 190 190 179 176 184 198 205 211 212 250 283 336 316 313 310 307 306 309 308 303 299 298 297 297 298 295 294 296 296 298 298 298 299 290 290 297 289 287 280 272 267 265
198 200 199 190 187 200 211 218 229 234 262 272 277 291 280 281 282 282 286 286 285 285 285 285 283 286 286 287 289 289 290 291 292 289 286 288 290 290 290 286 276 268 263
201 204 200 191 197 202 209 220 221 234 240 248 255 263 271 281 281 283 283 279 279 282 282 283 285 286 287 287 286 286 287 287 285 285 286 288 291 289 289 290 286 280 271
201 200 198 196 203 205 212 211 217 231 245 253 264 276 282 284 283 283 285 287 287 287 288 290 292 294 295 296 297 296 294 292 292 291 292 291 290 288 287 285 290 277 273
209 205 196 199 211 214 215 210 214 231 250 263 272 274 277 277 279 285 290 292 295 296 297 298 298 299 300 300 300 299 299 299 298 297 293 290 285 282 280 284 284 283 278
211 207 204 205 208 213 216 215 229 245 257 265 266 271 277 281 286 290 295 297 297 297 297 298 299 301 302 304 302 300 299 299 300 298 295 283 281 287 281 275 274 272 270
207 206 202 206 211 214 217 221 232 245 255 263 272 284 289 293 297 298 298 299 299 300 302 304 305 307 307 308 308 306 307 315 310 296 277 274 296 293 285 280 280 276 269
207 200 202 204 204 211 220 225 231 245 261 275 288 291 294 295 298 302 305 307 307 308 308 310 311 311 312 319 319 322 318 319 314 262 272 283 296 297 301 291 281 277 271
205 198 200 198 203 209 219 227 239 260 284 292 291 295 299 304 308 310 312 313 313 314 316 321 325 328 323 323 317 306 312 292 306 323 303 312 304 304 301 295 295 292 278
199 196 196 194 198 206 215 240 263 295 296 300 305 306 309 310 311 315 319 319 321 323 327 329 326 323 320 318 316 309 296 289 291 301 293 311 315 309 298 303 301 301 285
192 187 185 187 192 204 238 277 313 312 314 315 314 310 309 318 325 327 326 327 328 329 326 323 322 320 318 313 309 305 301 297 291 276 285 301 301 304 309 309 308 313 298
175 174 174 184 198 230 307 322 313 315 317 312 311 320 330 333 336 341 342 340 333 329 329 327 326 323 320 315 311 305 298 291 285 284 284 285 293 303 308 306 314 315 302
Wind_Speed_850mb
27 26 26 25 23 22 23 25 26 26 27 26 26 25 24 21 19 16 13 11 10 9 8 7 7 7 8 8 8 8 8 8 8 8 7 5 8 11 13 15 16 17 16
29 28 26 25 24 22 23 23 23 23 23 22 22 21 20 18 16 13 10 7 4 5 7 8 9 10 11 12 12 12 11 11 11 9 7 5 6 5 5 7 11 12 13
29 29 26 23 23 22 21 21 22 22 21 20 18 17 16 14 12 8 5 3 2 5 8 10 11 11 11 12 13 14 15 16 15 14 14 13 14 15 13 11 10 10 9
27 25 23 21 18 19 19 18 18 18 16 16 15 13 11 8 5 1 2 5 8 11 13 14 15 15 15 16 18 19 19 18 18 18 19 21 22 22 21 19 18 20 17
27 25 23 22 20 20 20 18 18 16 15 13 11 10 9 6 4 3 3 5 7 10 13 15 16 18 21 22 22 23 24 24 25 24 23 24 26 27 29 27 26 27 28
24 23 21 19 18 17 17 16 14 13 12 10 10 9 8 6 4 1 3 7 12 14 14 14 17 19 19 20 22 25 28 29 30 29 29 28 29 30 30 36 35 32 33
23 22 20 18 17 15 15 14 13 12 10 8 6 5 3 1 1 3 7 8 10 11 12 14 16 18 22 24 25 26 29 31 33 34 34 35 35 34 38 39 42 41 38
20 24 22 20 17 15 13 11 9 7 5 2 1 1 2 4 4 2 5 9 11 13 16 17 19 25 30 31 31 30 32 35 39 41 41 40 39 38 39 44 46 46 46
24 24 24 21 19 16 14 13 11 9 6 3 3 4 5 6 6 8 14 16 20 23 24 26 27 30 33 32 32 34 36 38 41 42 41 40 35 35 36 38 43 50 50
29 27 25 23 22 20 18 15 13 13 11 8 7 5 6 9 10 12 16 18 21 24 26 26 28 30 33 35 38 41 45 50 52 52 49 47 44 41 39 35 33 39 53
31 25 26 29 29 28 23 20 19 19 19 20 20 19 19 18 17 18 19 22 24 26 27 27 29 34 36 37 38 43 49 52 53 57 61 60 60 54 50 44 40 38 42
36 34 32 27 26 22 20 18 16 17 16 17 15 15 16 15 13 16 19 22 26 29 33 37 41 45 51 56 59 58 62 64 56 57 58 58 61 59 58 55 51 45 42
38 38 33 26 21 18 14 13 11 10 10 11 13 14 15 16 16 19 24 30 35 40 41 43 45 49 54 60 64 69 73 75 74 69 57 55 58 61 64 64 62 58 54
42 38 35 29 20 15 12 8 7 3 4 7 9 12 15 20 24 29 35 41 44 46 49 51 52 55 58 64 71 76 79 80 83 82 68 66 68 62 62 70 72 71 68
45 37 36 33 25 17 17 15 12 6 4 4 8 13 20 25 31 36 39 41 42 44 48 53 58 62 64 71 77 80 85 86 86 86 72 77 83 79 81 75 76 81 82
50 39 41 40 30 23 21 20 18 12 10 13 17 20 26 35 40 43 47 48 50 52 56 60 64 69 71 75 80 82 87 92 94 84 85 92 97 95 93 79 78 87 86
52 44 45 44 33 27 25 24 22 17 18 23 27 28 33 41 45 49 51 52 54 57 61 65 68 71 77 81 87 91 96 96 93 96 96 92 79 70 72 70 64 63 74
53 52 51 46 37 34 28 24 20 18 23 28 32 36 42 44 43 40 44 51 57 61 67 73 78 85 90 89 86 87 87 84 84 83 81 77 72 74 68 56 51 61 61
65 58 60 54 44 41 35 30 28 29 30 34 37 39 42 43 47 52 60 65 69 74 79 83 85 83 86 88 91 92 89 85 80 77 73 68 65 63 61 61 56 55 55
69 65 59 53 43 38 33 32 31 32 34 37 38 40 45 50 56 61 65 71 77 81 83 84 86 85 84 84 86 89 87 80 76 62 44 40 44 45 48 61 66 61 55
79 72 58 48 42 39 37 37 37 37 39 42 40 43 50 53 59 65 71 75 80 84 86 83 83 82 81 77 81 82 81 53 43 49 42 23 37 50 55 59 60 62 67
81 68 60 52 48 45 44 42 41 39 40 37 40 47 51 57 63 71 77 79 77 74 71 70 67 69 68 62 58 59 35 53 8 11 22 44 50 38 50 51 49 49 52
72 66 60 55 52 49 44 39 34 34 34 36 42 49 57 64 71 73 71 68 66 63 60 56 55 56 63 58 44 36 23 15 53 30 51 50 55 62 40 37 41 48 46
64 62 59 55 50 42 28 24 28 27 32 40 47 56 64 69 67 62 58 56 56 54 55 54 51 53 54 58 53 50 48 55 45 39 33 66 57 40 52 59 42 42 36
64 61 54 48 39 25 19 21 30 34 40 48 55 61 61 56 54 53 51 51 52 52 51 50 50 50 51 54 54 55 57 57 55 59 58 61 67 64 57 50 53 40 38
60 54 42 32 26 13 15 30 33 39 48 54 56 51 50 51 50 47 49 50 52 51 51 51 51 52 52 51 52 51 54 57 55 52 51 61 76 73 61 60 50 37 33
Wind_Direction_850mb
152 140 137 144 150 149 142 139 135 135 135 133 133 135 140 145 149 152 146 131 115 97 84 71 55 44 37 32 28 22 20 19 21 27 37 53 51 49 45 47 52 48 39
150 144 145 151 158 159 155 149 146 141 139 139 141 146 151 157 163 165 165 156 120 62 37 27 16 7 2 359 356 351 345 342 340 338 331 304 279 302 342 8 13 26 26
154 147 147 152 159 161 157 153 151 147 146 146 150 153 158 163 166 169 168 149 46 19 16 12 7 2 355 350 346 344 340 334 328 320 312 298 288 283 287 292 303 319 339
151 145 144 143 147 149 147 147 144 142 141 143 147 152 155 157 158 152 14 7 359 355 358 358 356 350 344 342 343 342 337 330 322 314 308 302 294 288 273 280 276 275 282
152 147 148 146 149 148 146 146 143 139 136 134 131 125 118 117 106 64 22 351 339 341 348 349 346 338 339 340 334 326 319 316 314 312 310 304 295 291 277 280 285 271 262
148 150 153 151 149 144 139 135 131 126 124 121 114 113 125 139 108 65 294 331 339 338 340 343 344 342 334 324 318 316 313 310 303 299 295 289 286 285 271 270 281 275 259
147 149 153 154 153 148 144 142 141 140 140 137 135 151 154 124 274 314 349 350 345 347 344 341 333 328 324 320 312 304 303 304 302 296 290 288 284 280 278 274 270 270 269
149 145 147 150 151 150 149 140 132 125 117 112 83 327 342 320 308 318 339 345 338 331 333 328 318 319 322 320 317 313 311 310 306 304 300 294 288 283 278 275 275 271 266
137 130 132 133 131 126 117 106 101 95 89 73 15 1 358 343 331 316 335 333 329 325 325 326 322 324 325 324 320 317 314 312 309 306 303 300 304 299 289 277 271 275 272
130 124 131 128 122 121 114 110 102 85 73 57 35 9 324 315 315 314 327 351 356 352 352 347 344 344 333 320 316 313 308 304 300 299 294 292 295 300 302 288 280 274 270
144 137 131 122 115 114 108 108 102 92 84 76 67 57 49 43 41 43 37 23 11 3 356 349 342 336 337 335 322 311 306 311 301 291 290 287 287 289 291 295 288 278 273
160 145 142 137 126 120 111 109 103 91 82 73 59 46 43 45 31 10 357 350 349 344 342 339 335 331 329 329 327 321 321 319 309 304 292 287 282 281 280 282 285 284 281
170 161 157 153 141 130 121 119 118 103 87 60 42 32 26 16 2 344 336 334 335 334 331 329 322 320 318 318 316 314 313 313 315 311 295 290 287 278 273 275 276 277 274
183 174 172 162 162 159 160 157 160 128 65 28 12 1 345 339 334 327 327 324 323 323 320 318 314 312 308 304 305 305 304 304 306 308 299 294 299 290 280 271 270 270 268
190 190 190 179 176 184 198 205 211 212 250 283 336 316 313 310 307 306 309 308 303 299 298 297 297 298 295 294 296 296 298 298 298 299 290 290 297 289 287 280 272 267 265
198 200 199 190 187 200 211 218 229 234 262 272 277 291 280 281 282 282 286 286 285 285 285 285 283 286 286 287 289 289 290 291 292 289 286 288 290 290 290 286 276 268 263
201 204 200 191 197 202 209 220 221 234 240 248 255 263 271 281 281 283 283 279 279 282 282 283 285 286 287 287 286 286 287 287 285 285 286 288 291 289 289 290 286 280 271
201 200 198 196 203 205 212 211 217 231 245 253 264 276 282 284 283 283 285 287 287 287 288 290 292 294 295 296 297 296 294 292 292 291 292 291 290 288 287 285 290 277 273
209 205 196 199 211 214 215 210 214 231 250 263 272 274 277 277 279 285 290 292 295 296 297 298 298 299 300 300 300 299 299 299 298 297 293 290 285 282 280 284 284 283 278
211 207 204 205 208 213 216 215 229 245 257 265 266 271 277 281 286 290 295 297 297 297 297 298 299 301 302 304 302 300 299 299 300 298 295 283 281 287 281 275 274 272 270
207 206 202 206 211 214 217 221 232 245 255 263 272 284 289 293 297 298 298 299 299 300 302 304 305 307 307 308 308 306 307 315 310 296 277 274 296 293 285 280 280 276 269
207 200 202 204 204 211 220 225 231 245 261 275 288 291 294 295 298 302 305 307 307 308 308 310 311 311 312 319 319 322 318 319 314 262 272 283 296 297 301 291 281 277 271
205 198 200 198 203 209 219 227 239 260 284 292 291 295 299 304 308 310 312 313 313 314 316 321 325 328 323 323 317 306 312 292 306 323 303 312 304 304 301 295 295 292 278
199 196 196 194 198 206 215 240 263 295 296 300 305 306 309 310 311 315 319 319 321 323 327 329 326 323 320 318 316 309 296 289 291 301 293 311 315 309 298 303 301 301 285
192 187 185 187 192 204 238 277 313 312 314 315 314 310 309 318 325 327 326 327 328 329 326 323 322 320 318 313 309 305 301 297 291 276 285 301 301 304 309 309 308 313 298
175 174 174 184 198 230 307 322 313 315 317 312 311 320 330 333 336 341 342 340 333 329 329 327 326 323 320 315 311 305 298 291 285 284 284 285 293 303 308 306 314 315 302